Location: Newark
(34.9500°N, 139.9667°E)
Time: 01:50:35
(UTC+00:00)

Vanguard 2 Rocket - Pass Details

Date: 17 December 2019
Orbit: 554 x 3326 km, 32.9° (Epoch: 27 January)

Event Time Altitude Azimuth Distance (km) Brightness Sun altitude
Rises 06:57:33 0° 248° (WSW) 7,308 13.7 5.0°
Reaches altitude 10° 07:02:38 10° 247° (WSW) 6,214 13.4 4.1°
Maximum altitude 07:21:46 75° 167° (SSE) 2,605 9.3 0.7°
Drops below altitude 10° 07:33:34 10° 85° (E) 4,069 9.7 -1.4°
Sets 07:36:10 0° 83° (E) 4,761 10.0 -1.9°
